Find Starlink 32524

NORAD ID: 62159 Int'l Des: 2024-224 Owner: SPXS Country: US Constellation: starlink operational
LEOCIRCULAR

实时位置

正在加载3D地球...

关于 Starlink 32524

正在加载描述...

即将过境

Passes for default location (London). Set your location on the main map for personalized predictions.

高度历史

Loading altitude history...

两行轨道根数

1 62159U 24224W 26127.88853201 .00010865 00000-0 40367-3 0 9993
2 62159 43.0021 187.2503 0001459 271.5616 88.5069 15.27588730 81335
Epoch: May 7, 2026 • Age: 6 hours

当前状态

高度 484.8 km
速度 7.62 km/s
星下点 -11.73°S, 109.4°E
发射日期 Nov 30, 2024
运行时间 1.4 years
类型 internet

技术详情

分类 Payload
质量 730.00 kg
干质量 700.00 kg
总质量 730.00 kg
长度 0.30 m
直径 4.10 m
跨度 29.00 m
形状 Box + pan
制造商 SPXS
平台类型 Starlink V2M
阶段状态 In Orbit
所有者/国家 SPXS/US

Most Searched